Location: Bay Ridge
(40.6340°N, 74.0146°W)
Time: 10:31:58
(UTC+00:00)

Meteor PRIRODA - Pass Details

Date: 15 November 2019
Orbit: 490 x 512 km, 97.5° (Epoch: 15 December)

Event Time Altitude Azimuth Distance (km) Brightness Sun altitude
Rises 10:21:55 0° 2° (N) 2,602 7.2 -15.4°
Reaches altitude 10° 10:24:08 10° 353° (N) 1,709 6.1 -14.9°
Maximum altitude 10:27:27 33° 288° (WNW) 847 4.2 -14.3°
Drops below altitude 10° 10:30:45 10° 223° (SW) 1,686 6.0 -13.7°
Sets 10:32:55 0° 214° (SSW) 2,560 7.0 -13.3°
